Weather History for Melilla, Spain

Change the Weather History Date:

Sunday, April 29, 2012

  Actual Average Record
Temperature  
Mean Temperature 61 °F -  
Max Temperature 71 °F 74 °F 82 °F (1997)
Min Temperature 51 °F 61 °F 50 °F (2013)
Degree Days  
Heating Degree Days 4    
Growing Degree Days 11 (Base 50)    
Moisture  
Dew Point 48 °F    
Average Humidity 68    
Maximum Humidity 88    
Minimum Humidity 31    
Precipitation  
Precipitation 0.02 in 0.05 in - ()
Sea Level Pressure  
Sea Level Pressure 29.96 in    
Wind  
Wind Speed 6 mph ()    
Max Wind Speed 18 mph    
Max Gust Speed 33 mph    
Visibility 6.9 miles    
Events Rain    
Averages and records for this station are not official NWS values.
T = Trace of Precipitation, MM = Missing Value Source: Averaged Metar Reports

Daily Weather History Graph

Daily Weather History Graph

Search for Another Location

Airport:

Trip Planner

Search our weather history database for the weather conditions in past years. The results will help you decide how hot, cold, wet, or windy it might be!

Date:

Astronomy

Apr. 29, 2012 Rise Set
Actual Time 7:22 AM CEST 8:56 PM CEST
Civil Twilight 6:55 AM CEST 9:23 PM CEST
Nautical Twilight 6:22 AM CEST 9:56 PM CEST
Astronomical Twilight 5:48 AM CEST 10:30 PM CEST
Moon 1:49 PM CEST (4/29) 2:47 AM CEST (4/29)
Length of Visible Light 14h 28m
Length of Day
13h 33m
Waxing Crescent, 50% of the Moon is Illuminated
Apr 29
Waxing Crescent
May 6
Full
May 12
Last Quarter
May 21
New
May 28
First Quarter

Hourly Weather History & Observations

Time (CEST) Temp. Dew Point Humidity Pressure Visibility Wind Dir Wind Speed Gust Speed Precip Events Conditions
2:00 AM 56 °F 49 °F 71% 30.01 in 12 mi SE 4.6 mph - -  
6:00 AM 53.6 °F 48.2 °F 82% 29.98 in - Variable 1.2 mph - N/A   Clear
6:30 AM 51.8 °F 48.2 °F 88% 29.95 in - West 1.2 mph - N/A   Clear
7:00 AM 51.8 °F 48.2 °F 88% 29.95 in - NW 5.8 mph - N/A   Clear
7:30 AM 51.8 °F 48.2 °F 88% 29.95 in - Variable 1.2 mph - N/A   Clear
8:00 AM 52 °F 48 °F 81% 29.96 in 25 mi Calm Calm - -  
8:00 AM 51.8 °F 48.2 °F 88% 29.95 in - Variable 1.2 mph - N/A   Clear
8:30 AM 55.4 °F 50.0 °F 82% 29.95 in - Variable 1.2 mph - N/A   Clear
9:00 AM 59.0 °F 50.0 °F 72% 29.95 in - Variable 2.3 mph - N/A   Clear
9:30 AM 62.6 °F 50.0 °F 63% 29.95 in - Variable 2.3 mph - N/A   Clear
10:00 AM 66.2 °F 41.0 °F 40% 29.95 in - NW 3.5 mph - N/A   Clear
10:30 AM 68.0 °F 39.2 °F 35% 29.95 in - SSW 10.4 mph 23.0 mph N/A   Clear
11:00 AM 68.0 °F 39.2 °F 35% 29.95 in - South 11.5 mph - N/A   Clear
11:30 AM 69.8 °F 37.4 °F 31% 29.95 in - SSW 10.4 mph - N/A   Clear
12:00 PM 69.8 °F 37.4 °F 31% 29.95 in - SW 10.4 mph - N/A   Clear
12:30 PM 69.8 °F 39.2 °F 33% 29.95 in - SW 10.4 mph - N/A   Clear
1:00 PM 68.0 °F 41.0 °F 37% 29.95 in - West 9.2 mph - N/A   Clear
1:30 PM 68.0 °F 46.4 °F 46% 29.92 in - West 9.2 mph - N/A   Clear
2:00 PM 66 °F 53 °F 54% 29.91 in 25 mi North 12.7 mph - -   Clear
2:00 PM 66.2 °F 53.6 °F 64% 29.92 in - North 12.7 mph - N/A   Clear
2:30 PM 64.4 °F 53.6 °F 68% 29.92 in - North 12.7 mph - N/A   Clear
3:00 PM 62.6 °F 53.6 °F 72% 29.92 in - North 9.2 mph - N/A   Clear
3:30 PM 60.8 °F 53.6 °F 77% 29.95 in - WNW 13.8 mph - N/A   Clear
4:00 PM 62.6 °F 53.6 °F 72% 29.95 in 6.2 mi WNW 16.1 mph - N/A   Scattered Clouds
4:30 PM 59.0 °F 51.8 °F 77% 29.98 in 6.2 mi West 18.4 mph 33.4 mph N/A Rain Rain
5:00 PM 57.2 °F 51.8 °F 82% 29.98 in 6.2 mi West 16.1 mph 27.6 mph N/A Rain Light Rain
5:30 PM 57.2 °F 51.8 °F 82% 29.98 in 6.2 mi West 16.1 mph 27.6 mph N/A Rain Light Rain
6:00 PM 55.4 °F 51.8 °F 88% 29.98 in 6.2 mi West 16.1 mph - N/A Rain Light Rain
6:30 PM 55.4 °F 51.8 °F 88% 29.98 in 6.2 mi West 9.2 mph - N/A   Scattered Clouds
7:00 PM 55.4 °F 50.0 °F 82% 30.01 in 6.2 mi WNW 5.8 mph - N/A   Partly Cloudy
7:30 PM 55.4 °F 50.0 °F 82% 30.01 in - West 5.8 mph - N/A   Clear
8:00 PM 56 °F 50 °F 75% 29.99 in 25 mi West 3.5 mph - -   Clear
8:00 PM 55.4 °F 50.0 °F 82% 30.01 in - West 3.5 mph - N/A   Clear